Regional Weather Roundup
Issued by NWS

Home | Current Version | Previous Version | Text Only | Print | Product List | Glossary Off
Versions: 1 2 3 4 5 6 7 8 9 10 11 12 13 14 15 16 17 18 19 20 21 22 23 24 25 26 27 28 29 30 31 32 33 34 35 36 37 38 39 40 41 42 43 44 45 46 47 48 49 50

000
ASUS43 KOAX 211002
RWRNE

WEATHER ROUNDUP FOR NEBRASKA
NATIONAL WEATHER SERVICE OMAHA NE
500 AM CDT SAT OCT 21 2017

NOTES: SATELLITE DATA IS BEING USED TO AUGMENT CLOUD COVER ABOVE
       12000 FEET.
       "FAIR" INDICATES FEW OR NO CLOUDS BELOW 12,000 FEET WITH NO
       SIGNIFICANT WEATHER AND/OR OBSTRUCTIONS TO VISIBILITY.


NEZ001>004-019>022-054>056-211100-
NEBRASKA PANHANDLE

CITY           SKY/WX    TMP DP  RH WIND       PRES   REMARKS
SCOTTSBLUFF    CLOUDY    50  23  34 W20G30    29.69R
ALLIANCE       CLOUDY    48  31  51 NW20G29   29.60R
CHADRON        CLOUDY    53  28  38 W16G23    29.62R
GORDON         LGT RAIN  56  34  44 NW15G24   29.55R
KIMBALL        CLOUDY    46  18  32 NW31G41   29.70R
SIDNEY         CLOUDY    49  22  34 NW31G45   29.66R
$$

NEZ057>060-069>072-079>082-211100-
SOUTHWEST NEBRASKA

CITY           SKY/WX    TMP DP  RH WIND       PRES   REMARKS
NORTH PLATTE   CLOUDY    55  52  89 W6        29.48R
IMPERIAL       PTCLDY    55  38  52 NW17G25   29.58R
LEXINGTON      CLOUDY    65  57  77 S15G21    29.46S
MCCOOK         PTCLDY    62  52  69 SW18      29.47R
OGALLALA       PTCLDY    59  35  40 NW23G35   29.54R
$$

NEZ005>010-023>029-035>040-094-211100-
NORTH CENTRAL NEBRASKA

CITY           SKY/WX    TMP DP  RH WIND       PRES   REMARKS
VALENTINE      CLOUDY    61  44  53 N13G24    29.49R
AINSWORTH      PTCLDY    55  55  98 S5        29.48R
BROKEN BOW     CLOUDY    62  57  83 VRB5      29.47R
O`NEILL        PTCLDY    64  60  88 W8        29.50R
ORD            CLEAR     65  60  84 S14G23    29.45F
THEDFORD       MOCLDY    54  53  96 W3        29.51R
$$

NEZ041-046>049-061>064-073>077-083>087-211100-
SOUTH CENTRAL NEBRASKA

CITY           SKY/WX    TMP DP  RH WIND       PRES   REMARKS
GRAND ISLAND   CLOUDY    69  62  78 S28G39    29.51S
AURORA         CLOUDY    68  62  80 S21G33    29.52F
HASTINGS       MOCLDY    67  60  78 S20G32    29.52F
HEBRON         CLOUDY    71  62  74 S23G33    29.59S
HOLDREGE       CLOUDY    65  60  85 S18G25    29.48F
KEARNEY        CLEAR     65  60  84 S22G31    29.48F
YORK           CLOUDY    68  63  83 S23G32    29.55S
$$

NEZ011>018-030>034-042>045-211100-
NORTHEAST NEBRASKA

CITY           SKY/WX    TMP DP  RH WIND       PRES   REMARKS
NORFOLK        CLOUDY    69  61  75 S22G30    29.49F
ALBION         CLOUDY    68  62  79 S15G25    29.49F
BLAIR          CLOUDY    66  61  85 S16G26    29.61S
COLUMBUS       CLOUDY    70  62  76 S24G35    29.52F
FREMONT        CLOUDY    68  60  75 SE17G23   29.58S
TEKAMAH        CLOUDY    67  60  78 S13G21    29.59S
WAYNE          CLOUDY    69  63  82 S18G32    29.52S
$$

NEZ050>053-065>068-078-088>093-211100-
SOUTHEAST NEBRASKA

CITY           SKY/WX    TMP DP  RH WIND       PRES   REMARKS
LINCOLN        CLOUDY    69  61  75 S29G38    29.58S
OMAHA EPPLEY   TSTM      65  60  84 S20       29.62F
BEATRICE       CLOUDY    69  62  79 S20G32    29.62S
FALLS CITY     CLOUDY    68  60  75 S20G31    29.71S
NEBRASKA CITY  CLOUDY    67  64  91 S24G33    29.66F
PLATTSMOUTH    CLOUDY    65  62  89 S21       29.63F
$$

NEZ044-045-051>053-067-211100-
OMAHA AREA

CITY           SKY/WX    TMP DP  RH WIND       PRES   REMARKS
OMAHA EPPLEY   TSTM      65  60  84 S20       29.62F
BLAIR          CLOUDY    66  61  85 S16G26    29.61S
FREMONT        CLOUDY    68  60  75 SE17G23   29.58S
MILLARD        CLOUDY    68  62  82 S14G21    29.62R THUNDER
OFFUTT AFB     CLOUDY    64  60  87 SE18G25   29.62F
PLATTSMOUTH    CLOUDY    65  62  89 S21       29.63F
WAHOO          CLOUDY    69  61  74 S22G29    29.58S
$$




USA.gov is the U.S. government's official web portal to all federal, state and local government web resources and services.